Location: Helion Bumpstead
(52.0500°N, 0.4000°E)
Time: 22:07:45
(UTC+00:00)

Cosmos 2061 Rocket - Pass Details

Date: 15 November 2025
Orbit: 964 x 1013 km, 82.9° (Epoch: 06 December)

Event Time Altitude Azimuth Distance (km) Brightness Sun altitude
Rises 04:12:20 0° 350° (N) 3,671 7.0 -28.4°
Reaches altitude 10° 04:14:52 10° 352° (N) 2,718 6.3 -28.0°
Maximum altitude 04:21:05 74° 78° (ENE) 1,004 4.1 -27.0°
Drops below altitude 10° 04:27:15 10° 164° (SSE) 2,700 6.4 -26.1°
Sets 04:29:45 0° 166° (SSE) 3,646 7.1 -25.7°
